Location: Monteux
(44.0348°N, 4.9972°E)
Time: 17:52:54
(UTC+00:00)

FALCON 9 R/B - Pass Details

Date: 30 November 2020
Orbit: 300 x 10107 km, 34.5° (Epoch: 18 January)

Event Time Altitude Azimuth Distance (km) Brightness Sun altitude
Rises 18:13:34 0° 241° (WSW) 1,980 5.4 -22.8°
Reaches altitude 10° 18:15:46 10° 209° (SSW) 1,248 3.6 -23.2°
Enters shadow 18:16:10 12° 200° (SSW) 1,185 3.3 -23.2°
